Satellite: GO-32
Catalog number: 25397
Epoch time:      08346.63544050
Element set:     769
Inclination:      098.3449 deg
RA of node:       012.8589 deg
Eccentricity:    0.0002208
Arg of perigee:   080.4902 deg
Mean anomaly:     279.6545 deg
Mean motion:   14.23151607 rev/day
Decay rate:       -8.6e-07 rev/day^2
Epoch rev:           54145
Checksum:              319

Satellite: NO-44
Catalog number: 26931
Epoch time:      08346.71380842
Element set:      48
Inclination:      067.0515 deg
RA of node:       187.3190 deg
Eccentricity:    0.0006252
Arg of perigee:   256.6737 deg
Mean anomaly:     103.3664 deg
Mean motion:   14.29542303 rev/day
Decay rate:       1.82e-06 rev/day^2
Epoch rev:           37578
Checksum:              306

Satellite: SO-50
Catalog number: 27607
Epoch time:      08345.51672061
Element set:     762
Inclination:      064.5580 deg
RA of node:       238.1100 deg
Eccentricity:    0.0083367
Arg of perigee:   245.0636 deg
Mean anomaly:     114.1799 deg
Mean motion:   14.71401021 rev/day
Decay rate:        2.4e-07 rev/day^2
Epoch rev:           32091
Checksum:              271

Satellite: CO-55
Catalog number: 27844
Epoch time:      08346.71571763
Element set:     462
Inclination:      098.7157 deg
RA of node:       352.5210 deg
Eccentricity:    0.0009702
Arg of perigee:   329.7519 deg
Mean anomaly:     030.3102 deg
Mean motion:   14.20611338 rev/day
Decay rate:        3.2e-07 rev/day^2
Epoch rev:           28264
Checksum:              290

Satellite: CO-57
Catalog number: 27848
Epoch time:      08346.03339027
Element set:     411
Inclination:      098.7164 deg
RA of node:       350.9178 deg
Eccentricity:    0.0009860
Arg of perigee:   334.8389 deg
Mean anomaly:     025.2304 deg
Mean motion:   14.20417496 rev/day
Decay rate:        3.9e-07 rev/day^2
Epoch rev:           28251
Checksum:              319

Satellite: AO-51
Catalog number: 28375
Epoch time:      08345.53448042
Element set:     264
Inclination:      098.0587 deg
RA of node:       000.0851 deg
Eccentricity:    0.0084563
Arg of perigee:   338.5286 deg
Mean anomaly:     021.2362 deg
Mean motion:   14.40627152 rev/day
Decay rate:        9.0e-08 rev/day^2
Epoch rev:           23379
Checksum:              298

Satellite: CO-56
Catalog number: 28941
Epoch time:      08346.85520439
Element set:     627
Inclination:      098.1225 deg
RA of node:       123.3369 deg
Eccentricity:    0.0133756
Arg of perigee:   111.1231 deg
Mean anomaly:     250.4335 deg
Mean motion:   15.67351378 rev/day
Decay rate:     3.1214e-04 rev/day^2
Epoch rev:           15776
Checksum:              309

Satellite: CP3
Catalog number: 31128
Epoch time:      08345.82009647
Element set:     503
Inclination:      098.0177 deg
RA of node:       041.5820 deg
Eccentricity:    0.0103383
Arg of perigee:   148.0857 deg
Mean anomaly:     212.6653 deg
Mean motion:   14.51999874 rev/day
Decay rate:       -4.6e-07 rev/day^2
Epoch rev:            8756
Checksum:              314

Satellite: CP4
Catalog number: 31132
Epoch time:      08346.15551382
Element set:     480
Inclination:      098.0221 deg
RA of node:       044.9473 deg
Eccentricity:    0.0086533
Arg of perigee:   138.1189 deg
Mean anomaly:     222.6671 deg
Mean motion:   14.55165683 rev/day
Decay rate:       1.54e-06 rev/day^2
Epoch rev:            8768
Checksum:              304

Satellite: CO-65
Catalog number: 32785
Epoch time:      08346.22265743
Element set:     233
Inclination:      097.9728 deg
RA of node:       045.4941 deg
Eccentricity:    0.0013777
Arg of perigee:   283.3972 deg
Mean anomaly:     076.5702 deg
Mean motion:   14.81425967 rev/day
Decay rate:       2.81e-06 rev/day^2
Epoch rev:            3361
Checksum:              332

/EX
SB KEPS @ AMSAT  $ORB08346.W
Orbital Elements  08346.WEATHER

HR AMSAT ORBITAL ELEMENTS FOR WEATHER SATELLITES
FROM WA5QGD FORT WORTH,TX December 11, 2008
Send Subscribe/unsubscribe to KEPS at 
http://www.amsat.org/mailman/listinfo/keps
BID: ORB08346.W
TO ALL RADIO AMATEURS BT

Satellite: NOAA-10
Catalog number: 16969
Epoch time:      08346.08393756
Element set:     407
Inclination:      098.7097 deg
RA of node:       007.5895 deg
Eccentricity:    0.0012825
Arg of perigee:   028.7309 deg
Mean anomaly:     331.4583 deg
Mean motion:   14.27375547 rev/day
Decay rate:        9.8e-07 rev/day^2
Epoch rev:           15667
Checksum:              351

Satellite: NOAA-11
Catalog number: 19531
Epoch time:      08346.31385390
Element set:     432
Inclination:      098.7928 deg
RA of node:       073.1276 deg
Eccentricity:    0.0010915
Arg of perigee:   285.7640 deg
Mean anomaly:     074.2364 deg
Mean motion:   14.14883303 rev/day
Decay rate:        1.2e-07 rev/day^2
Epoch rev:            4295
Checksum:              295

Satellite: NOAA-12
Catalog number: 21263
Epoch time:      08346.84831904
Element set:     939
Inclination:      098.7714 deg
RA of node:       348.8360 deg
Eccentricity:    0.0011978
Arg of perigee:   333.6012 deg
Mean anomaly:     026.5038 deg
Mean motion:   14.25558172 rev/day
Decay rate:        7.6e-07 rev/day^2
Epoch rev:           91374
Checksum:              320

